This is the latest recevied weather packets stored in our database for station/object K0WXC-1. If no packets are shown the sender has not sent any weather packets the latest 1 day(s).
| Time | Temp. | Humidity | Pressure | Rain* | Wind** | Luminosity | Snow |
|---|---|---|---|---|---|---|---|
| 1778061988 | 7.22° C | 63% | 1001.8 hPa | 0 mm | 0.45 m/s, 176° | - | - |
| 1778061928 | 7.22° C | 62% | 1001.7 hPa | 0 mm | 0.45 m/s, 117° | - | - |
| 1778061868 | 7.22° C | 62% | 1001.7 hPa | 0 mm | 0.45 m/s, 117° | - | - |
| 1778061808 | 7.22° C | 62% | 1001.7 hPa | 0 mm | 0.45 m/s, 117° | - | - |
| 1778061748 | 7.22° C | 62% | 1001.7 hPa | 0 mm | 0.45 m/s, 117° | - | - |
| 1778061508 | 7.22° C | 63% | 1001.6 hPa | 0 mm | 0.45 m/s, 188° | - | - |
| 1778061448 | 7.22° C | 63% | 1001.6 hPa | 0 mm | 0.45 m/s, 188° | - | - |
| 1778061388 | 7.22° C | 63% | 1001.6 hPa | 0 mm | 0.45 m/s, 188° | - | - |
| 1778061268 | 7.22° C | 64% | 1001.7 hPa | 0 mm | 0.45 m/s, 157° | - | - |
| 1778061028 | 7.22° C | 64% | 1001.6 hPa | 0 mm | 0.45 m/s, 161° | - | - |
| 1778060968 | 7.22° C | 64% | 1001.6 hPa | 0 mm | 0.45 m/s, 161° | - | - |
| 1778060908 | 7.22° C | 64% | 1001.6 hPa | 0 mm | 0.45 m/s, 161° | - | - |
| 1778060848 | 7.22° C | 64% | 1001.6 hPa | 0 mm | 0.45 m/s, 161° | - | - |
| 1778060788 | 7.22° C | 64% | 1001.6 hPa | 0 mm | 0.45 m/s, 161° | - | - |
| 1778060728 | 7.22° C | 64% | 1001.6 hPa | 0 mm | 1.34 m/s, 297° | - | - |
| 1778060668 | 7.22° C | 64% | 1001.6 hPa | 0 mm | 1.34 m/s, 297° | - | - |
| 1778060608 | 7.22° C | 64% | 1001.6 hPa | 0 mm | 1.34 m/s, 297° | - | - |
| 1778060548 | 7.22° C | 64% | 1001.6 hPa | 0 mm | 1.34 m/s, 297° | - | - |
| 1778060428 | 7.22° C | 65% | 1001.5 hPa | 0 mm | 0.45 m/s, 307° | - | - |
| 1778060368 | 7.22° C | 65% | 1001.5 hPa | 0 mm | 0.45 m/s, 307° | - | - |
| 1778060308 | 7.22° C | 65% | 1001.5 hPa | 0 mm | 0.45 m/s, 307° | - | - |
| 1778060128 | 7.22° C | 67% | 1001.3 hPa | 0 mm | 0.45 m/s, 124° | - | - |
| 1778060008 | 7.22° C | 67% | 1001.3 hPa | 0 mm | 0.45 m/s, 124° | - | - |
| 1778059768 | 7.22° C | 68% | 1001.5 hPa | 0 mm | 0.45 m/s, 164° | - | - |
| 1778059708 | 7.22° C | 68% | 1001.5 hPa | 0 mm | 0.45 m/s, 164° | - | - |
* Rain latest hour (hover to see other rain measurements)
** Current wind speed in m/s (hover to see current wind gust speed)